{"data":{"norad_id":63672,"epoch":"2026-09-20T21:40:09.689952Z","epoch_age_seconds":117797,"freshness":"FRESH","line1":"1 63672U 25085J   26263.90288993  .00108893  00000+0  84082-3 0  9994","line2":"2 63672  42.9990 181.7488 0001537 260.0199 100.0496 15.70846493 80947","mean_motion":15.70846493,"eccentricity":0.0001537,"inclination_deg":42.999,"raan_deg":181.7488,"arg_perigee_deg":260.0199,"mean_anomaly_deg":100.0496,"bstar":0.00084082,"rev_number":8094,"period_min":91.670319564446,"perigee_km":355.44139332783,"apogee_km":357.51161351878,"semimajor_km":6734.6135034233,"source":"CELESTRAK","updated_at":"2026-09-21T09:00:35.058679Z"}}